Location: Gloden
(48.4833°N, 15.3167°E)
Time: 16:38:56
(UTC+00:00)

SJ-12 - Pass Details

Date: 15 December 2019
Orbit: 568 x 586 km, 97.6° (Epoch: 21 January)

Event Time Altitude Azimuth Distance (km) Brightness Sun altitude
Rises 04:41:40 0° 9° (N) 2,813 7.4 -19.1°
Reaches altitude 10° 04:43:52 10° 5° (N) 1,906 6.5 -18.7°
Maximum altitude 04:47:55 56° 288° (WNW) 690 3.9 -18.1°
Drops below altitude 10° 04:51:54 10° 210° (SSW) 1,880 6.4 -17.5°
Sets 04:54:03 0° 206° (SSW) 2,770 7.3 -17.1°
